Weather History for Whitefield, NH

Change the Weather History Date:

Monday, November 5, 2012

  Actual Average Record
Temperature  
Mean Temperature 31 °F -  
Max Temperature 34 °F 43 °F 64 °F (2005)
Min Temperature 27 °F 26 °F 18 °F (2013)
Degree Days  
Heating Degree Days 34    
Moisture  
Dew Point 22 °F    
Average Humidity 72    
Maximum Humidity 86    
Minimum Humidity 48    
Precipitation  
Precipitation 0.02 in - - ()
Sea Level Pressure  
Sea Level Pressure 30.02 in    
Wind  
Wind Speed 3 mph (NW)    
Max Wind Speed 10 mph    
Max Gust Speed 21 mph    
Visibility 8 miles    
Events Snow    
Averages and records for this station are not official NWS values.
T = Trace of Precipitation, MM = Missing Value Source: NWS Daily Summary

Daily Weather History Graph

Daily Weather History Graph

Search for Another Location

Airport:

Trip Planner

Search our weather history database for the weather conditions in past years. The results will help you decide how hot, cold, wet, or windy it might be!

Date:

Astronomy

Nov. 05, 2012 Rise Set
Actual Time 6:29 AM EST 4:29 PM EST
Civil Twilight 5:58 AM EST 5:00 PM EST
Nautical Twilight 5:24 AM EST 5:34 PM EST
Astronomical Twilight 4:50 AM EST 6:08 PM EST
Moon 10:04 PM EST (11/5) 11:47 AM EST (11/5)
Length of Visible Light 11h 01m
Length of Day
10h 00m
Waning Gibbous, 63% of the Moon is Illuminated
Nov 5
Waning Gibbous
Nov 6
Last Quarter
Nov 13
New
Nov 20
First Quarter
Nov 28
Full

Hourly Weather History & Observations

Time (EST) Temp. Windchill Dew Point Humidity Pressure Visibility Wind Dir Wind Speed Gust Speed Precip Events Conditions
12:52 AM 33.1 °F 28.7 °F 23.0 °F 66% 29.98 in 10.0 mi Variable 4.6 mph - N/A   Overcast
1:20 AM 33.8 °F - 21.2 °F 60% 29.94 in 10.0 mi Calm Calm - N/A   Overcast
1:52 AM 32.0 °F - 23.0 °F 69% 29.98 in 10.0 mi Calm Calm - N/A   Overcast
2:52 AM 32.0 °F - 23.0 °F 69% 29.98 in 10.0 mi Calm Calm - N/A   Overcast
3:52 AM 32.0 °F - 24.1 °F 73% 29.99 in 10.0 mi Calm Calm - N/A   Overcast
4:18 AM 32.0 °F - 23.0 °F 69% 29.95 in 10.0 mi Calm Calm - N/A   Overcast
4:52 AM 32.0 °F - 23.0 °F 69% 29.99 in 10.0 mi Calm Calm - N/A   Overcast
5:52 AM 30.9 °F 27.5 °F 23.0 °F 72% 29.99 in 10.0 mi NW 3.5 mph - N/A   Overcast
6:03 AM 30.2 °F 26.7 °F 23.0 °F 75% 29.95 in 10.0 mi WNW 3.5 mph - N/A   Overcast
6:52 AM 30.9 °F 27.5 °F 24.1 °F 76% 29.99 in 4.0 mi West 3.5 mph - 0.00 in Snow Light Snow
7:06 AM 30.2 °F 25.4 °F 24.8 °F 80% 29.96 in 3.0 mi West 4.6 mph - 0.00 in Snow Light Snow
7:09 AM 30.2 °F 26.7 °F 24.8 °F 80% 29.96 in 2.5 mi West 3.5 mph - 0.00 in Snow Light Snow
7:20 AM 30.2 °F 26.7 °F 24.8 °F 80% 29.96 in 1.8 mi WNW 3.5 mph - 0.00 in Snow Light Snow
7:40 AM 30.2 °F 24.3 °F 26.6 °F 86% 29.97 in 0.8 mi NW 5.8 mph - 0.01 in Snow Light Snow
7:52 AM 30.0 °F 26.5 °F 26.1 °F 85% 30.02 in 1.5 mi NNW 3.5 mph - 0.01 in Snow Light Snow
7:58 AM 30.2 °F - 26.6 °F 86% 29.98 in 2.0 mi Calm Calm - 0.00 in Snow Light Snow
8:04 AM 30.2 °F - 26.6 °F 86% 29.98 in 2.5 mi Calm Calm - 0.00 in Snow Light Snow
8:07 AM 30.2 °F - 26.6 °F 86% 29.98 in 3.0 mi Calm Calm - 0.00 in Snow Light Snow
8:14 AM 30.2 °F - 26.6 °F 86% 29.98 in 6.0 mi Calm Calm - 0.00 in Snow Light Snow
8:23 AM 30.2 °F - 26.6 °F 86% 29.98 in 10.0 mi Calm Calm - 0.00 in   Overcast
8:52 AM 32.0 °F 28.7 °F 24.1 °F 73% 30.02 in 10.0 mi NNE 3.5 mph - 0.00 in   Overcast
9:52 AM 30.9 °F 24.3 °F 21.0 °F 67% 30.03 in 10.0 mi North 6.9 mph - 0.00 in   Overcast
10:52 AM 33.1 °F 28.7 °F 19.0 °F 56% 30.03 in 10.0 mi NW 4.6 mph - N/A   Overcast
11:52 AM 34.0 °F 28.0 °F 16.0 °F 48% 30.02 in 10.0 mi NW 6.9 mph - N/A   Overcast
12:52 PM 32.0 °F 23.6 °F 15.1 °F 50% 30.02 in 10.0 mi NW 10.4 mph - N/A   Overcast
1:52 PM 32.0 °F 23.6 °F 16.0 °F 52% 30.03 in 10.0 mi NNW 10.4 mph - N/A   Overcast
2:52 PM 32.0 °F 25.6 °F 15.1 °F 50% 30.03 in 10.0 mi NNW 6.9 mph - N/A   Overcast
3:52 PM 32.0 °F 24.8 °F 16.0 °F 52% 30.03 in 10.0 mi NW 8.1 mph - N/A   Overcast
4:52 PM 30.0 °F 24.1 °F 21.9 °F 72% 30.06 in 6.0 mi NW 5.8 mph - 0.00 in Snow Light Snow
5:27 PM 28.4 °F 21.2 °F 21.2 °F 74% 30.03 in 3.0 mi WNW 6.9 mph 20.7 mph 0.01 in Snow Light Snow
5:35 PM 28.4 °F 23.3 °F 21.2 °F 74% 30.03 in 6.0 mi WNW 4.6 mph - 0.01 in Snow Light Snow
5:52 PM 30.0 °F 25.2 °F 21.9 °F 72% 30.08 in 10.0 mi NW 4.6 mph - 0.01 in   Overcast
6:36 PM 30.2 °F 26.7 °F 21.2 °F 69% 30.05 in 10.0 mi WNW 3.5 mph - N/A   Overcast
6:52 PM 30.0 °F 25.2 °F 21.0 °F 69% 30.10 in 10.0 mi WNW 4.6 mph - N/A   Overcast
7:29 PM 28.4 °F - 23.0 °F 80% 30.06 in 8.0 mi Calm Calm - 0.00 in Snow Light Snow
7:52 PM 28.9 °F - 23.0 °F 78% 30.11 in 10.0 mi Calm Calm - 0.00 in   Overcast
8:52 PM 28.9 °F - 21.0 °F 72% 30.11 in 10.0 mi Calm Calm - N/A   Overcast
9:52 PM 28.9 °F 23.9 °F 19.9 °F 69% 30.12 in 10.0 mi West 4.6 mph - N/A   Overcast
10:52 PM 28.9 °F 22.8 °F 19.9 °F 69% 30.11 in 10.0 mi West 5.8 mph - N/A   Overcast
11:52 PM 27.0 °F 23.0 °F 19.9 °F 75% 30.11 in 10.0 mi West 3.5 mph - N/A   Mostly Cloudy